, NV

(GMT )
Eureka Airport

Weather History for K05U - May, 2013

Change the Weather History Date:

Sunday, May 12, 2013

  Actual Average Record
Temperature  
Mean Temperature 62 °F -  
Max Temperature 84 °F - - ()
Min Temperature 41 °F - - ()
Degree Days  
Heating Degree Days 2    
Growing Degree Days 12 (Base 50)    
Moisture  
Dew Point 27 °F    
Average Humidity 30    
Maximum Humidity 61    
Minimum Humidity 11    
Precipitation  
Precipitation 0.00 in - - ()
Sea Level Pressure  
Sea Level Pressure 30.32 in    
Wind  
Wind Speed 5 mph (SSE)    
Max Wind Speed 10 mph    
Max Gust Speed 16 mph    
Visibility 10 miles    
Events      
T = Trace of Precipitation, MM = Missing Value Source: NWS Daily Summary

Daily Weather History Graph

Daily Weather History Graph

Search for Another Location

Airport or City:

Astronomy

May. 12, 2013 Rise Set
Actual Time 5:32 AM PDT 7:48 PM PDT
Civil Twilight 5:02 AM PDT 8:19 PM PDT
Nautical Twilight 4:25 AM PDT 8:56 PM PDT
Astronomical Twilight 3:44 AM PDT 9:37 PM PDT
Moon 7:31 AM PDT (5/12) 10:19 PM PDT (5/12)
Length of Visible Light 15h 17m
Length of Day
14h 16m
Waxing Crescent, 7% of the Moon is Illuminated
May 12
Waxing Crescent
May 17
First Quarter
May 24
Full
May 31
Last Quarter
Jun 8
New

Hourly Weather History & Observations

Time (PDT) Temp. Windchill Dew Point Humidity Pressure Visibility Wind Dir Wind Speed Gust Speed Precip Events Conditions
12:10 AM 48.2 °F - 28.4 °F 46% 30.36 in 10.0 mi South 5.8 mph - N/A   Clear
12:30 AM 48.2 °F - 28.4 °F 46% 30.36 in 10.0 mi SSW 8.1 mph - N/A   Clear
12:50 AM 48.2 °F - 28.4 °F 46% 30.36 in 10.0 mi South 6.9 mph - N/A   Clear
1:10 AM 46.4 °F 43.5 °F 28.4 °F 50% 30.36 in 10.0 mi SSE 5.8 mph - N/A   Clear
1:30 AM 48.2 °F - 28.4 °F 46% 30.36 in 10.0 mi South 6.9 mph - N/A   Clear
1:50 AM 48.2 °F - 26.6 °F 43% 30.36 in 10.0 mi SSW 6.9 mph - N/A   Clear
2:10 AM 48.2 °F - 26.6 °F 43% 30.36 in 10.0 mi SSW 8.1 mph - N/A   Clear
2:30 AM 46.4 °F 42.9 °F 28.4 °F 50% 30.36 in 10.0 mi South 6.9 mph - N/A   Clear
2:50 AM 42.8 °F 38.6 °F 28.4 °F 57% 30.36 in 10.0 mi South 6.9 mph - N/A   Clear
3:10 AM 44.6 °F 40.7 °F 28.4 °F 53% 30.35 in 10.0 mi South 6.9 mph - N/A   Clear
3:30 AM 42.8 °F 38.6 °F 28.4 °F 57% 30.36 in 10.0 mi South 6.9 mph - N/A   Clear
3:50 AM 44.6 °F 41.4 °F 26.6 °F 49% 30.36 in 10.0 mi SSW 5.8 mph - N/A   Clear
4:10 AM 44.6 °F 40.2 °F 28.4 °F 53% 30.36 in 10.0 mi South 8.1 mph - N/A   Clear
4:30 AM 41.0 °F 36.4 °F 28.4 °F 61% 30.35 in 10.0 mi SSW 6.9 mph - N/A   Clear
4:50 AM 44.6 °F 40.7 °F 26.6 °F 49% 30.35 in 10.0 mi South 6.9 mph - N/A   Clear
5:10 AM 42.8 °F 38.0 °F 28.4 °F 57% 30.35 in 10.0 mi SSW 8.1 mph - N/A   Clear
5:30 AM 44.6 °F 40.2 °F 26.6 °F 49% 30.36 in 10.0 mi SSW 8.1 mph - N/A   Clear
5:50 AM 44.6 °F 40.7 °F 26.6 °F 49% 30.36 in 10.0 mi SSW 6.9 mph - N/A   Clear
6:10 AM 44.6 °F 40.2 °F 26.6 °F 49% 30.37 in 10.0 mi SSW 8.1 mph - N/A   Clear
6:30 AM 46.4 °F 42.9 °F 28.4 °F 50% 30.37 in 10.0 mi SSW 6.9 mph - N/A   Clear
6:50 AM 50.0 °F - 28.4 °F 43% 30.38 in 10.0 mi SW 6.9 mph - N/A   Clear
7:10 AM 53.6 °F - 28.4 °F 38% 30.38 in 10.0 mi SW 5.8 mph - N/A   Clear
7:30 AM 57.2 °F - 28.4 °F 33% 30.38 in 10.0 mi Calm Calm - N/A   Clear
7:50 AM 60.8 °F - 30.2 °F 31% 30.38 in 10.0 mi Calm Calm - N/A   Clear
8:10 AM 64.4 °F - 30.2 °F 28% 30.38 in 10.0 mi Calm Calm - N/A   Clear
8:30 AM 66.2 °F - 30.2 °F 26% 30.38 in 10.0 mi Calm Calm - N/A   Clear
8:50 AM 68.0 °F - 32.0 °F 26% 30.38 in 10.0 mi Calm Calm - N/A   Clear
9:10 AM 69.8 °F - 30.2 °F 23% 30.38 in 10.0 mi Calm Calm - N/A   Clear
9:30 AM 71.6 °F - 28.4 °F 20% 30.37 in 10.0 mi WSW 3.5 mph - N/A   Clear
9:50 AM 73.4 °F - 26.6 °F 18% 30.37 in 10.0 mi Calm Calm - N/A   Clear
10:10 AM 75.2 °F - 26.6 °F 17% 30.37 in 10.0 mi Calm Calm - N/A   Clear
10:30 AM 77.0 °F - 24.8 °F 14% 30.37 in 10.0 mi ENE 3.5 mph - N/A   Clear
10:50 AM 77.0 °F - 23.0 °F 13% 30.36 in 10.0 mi WSW 5.8 mph - N/A   Clear
11:10 AM 80.6 °F - 24.8 °F 13% 30.36 in 10.0 mi NW 6.9 mph - N/A   Clear
11:30 AM 80.6 °F - 24.8 °F 13% 30.36 in 10.0 mi East 3.5 mph - N/A   Clear
11:50 AM 80.6 °F - 24.8 °F 13% 30.35 in 10.0 mi SSE 3.5 mph - N/A   Clear
12:10 PM 80.6 °F - 24.8 °F 13% 30.34 in 10.0 mi ENE 4.6 mph - N/A   Clear
12:30 PM 80.6 °F - 23.0 °F 12% 30.34 in 10.0 mi ENE 6.9 mph - N/A   Clear
12:50 PM 80.6 °F - 23.0 °F 12% 30.33 in 10.0 mi Calm Calm - N/A   Clear
1:05 PM 80.6 °F - 23.0 °F 12% 30.33 in 10.0 mi NE 3.5 mph - N/A   Clear
1:30 PM 82.4 °F - 23.0 °F 11% 30.32 in 10.0 mi East 8.1 mph - N/A   Clear
1:50 PM 82.4 °F - 23.0 °F 11% 30.31 in 10.0 mi East 6.9 mph - N/A   Clear
2:10 PM 82.4 °F - 23.0 °F 11% 30.30 in 10.0 mi ESE 8.1 mph - N/A   Clear
2:30 PM 82.4 °F - 23.0 °F 11% 30.30 in 10.0 mi North 4.6 mph - N/A   Clear
2:50 PM 82.4 °F - 23.0 °F 11% 30.29 in 10.0 mi ESE 5.8 mph - N/A   Clear
3:10 PM 84.2 °F - 23.0 °F 11% 30.28 in 10.0 mi East 9.2 mph - N/A   Clear
3:30 PM 84.2 °F - 24.8 °F 11% 30.27 in 10.0 mi East 8.1 mph - N/A   Clear
3:50 PM 84.2 °F - 24.8 °F 11% 30.26 in 10.0 mi ENE 6.9 mph - N/A   Clear
4:10 PM 84.2 °F - 23.0 °F 11% 30.26 in 10.0 mi North 9.2 mph 16.1 mph N/A   Clear
4:25 PM 82.4 °F - 23.0 °F 11% 30.25 in 10.0 mi NE 8.1 mph - N/A   Clear
4:50 PM 82.4 °F - 23.0 °F 11% 30.24 in 10.0 mi ESE 5.8 mph - N/A   Clear
5:10 PM 82.4 °F - 23.0 °F 11% 30.24 in 10.0 mi ENE 5.8 mph - N/A   Clear
5:30 PM 82.4 °F - 23.0 °F 11% 30.23 in 10.0 mi North 8.1 mph - N/A   Clear
5:50 PM 82.4 °F - 23.0 °F 11% 30.23 in 10.0 mi North 10.4 mph - N/A   Clear
6:10 PM 80.6 °F - 23.0 °F 12% 30.22 in 10.0 mi ENE 4.6 mph - N/A   Clear
6:30 PM 80.6 °F - 21.2 °F 11% 30.22 in 10.0 mi Calm Calm - N/A   Clear
6:50 PM 77.0 °F - 24.8 °F 14% 30.22 in 10.0 mi North 6.9 mph - N/A   Clear
7:10 PM 75.2 °F - 32.0 °F 21% 30.22 in 10.0 mi North 6.9 mph - N/A   Clear
7:30 PM 71.6 °F - 32.0 °F 23% 30.22 in 10.0 mi NE 4.6 mph - N/A   Clear
7:50 PM 66.2 °F - 28.4 °F 24% 30.23 in 10.0 mi Calm Calm - N/A   Clear
8:10 PM 66.2 °F - 26.6 °F 23% 30.23 in 10.0 mi North 4.6 mph - N/A   Clear
8:30 PM 66.2 °F - 28.4 °F 24% 30.24 in 10.0 mi Calm Calm - N/A   Clear
8:50 PM 60.8 °F - 32.0 °F 34% 30.24 in 10.0 mi South 6.9 mph - N/A   Clear
9:10 PM 57.2 °F - 32.0 °F 38% 30.26 in 10.0 mi Calm Calm - N/A   Clear
9:30 PM 55.4 °F - 32.0 °F 41% 30.26 in 10.0 mi South 5.8 mph - N/A   Clear
9:50 PM 55.4 °F - 28.4 °F 36% 30.27 in 10.0 mi South 5.8 mph - N/A   Clear
10:10 PM 55.4 °F - 30.2 °F 38% 30.27 in 10.0 mi Calm Calm - N/A   Clear
10:30 PM 53.6 °F - 30.2 °F 41% 30.27 in 10.0 mi Calm Calm - N/A   Clear
10:50 PM 50.0 °F - 28.4 °F 43% 30.28 in 10.0 mi Calm Calm - N/A   Clear
11:10 PM 50.0 °F - 30.2 °F 47% 30.27 in 10.0 mi Calm Calm - N/A   Clear
11:30 PM 50.0 °F - 28.4 °F 43% 30.27 in 10.0 mi Calm Calm - N/A   Clear
11:50 PM 48.2 °F - 28.4 °F 46% 30.27 in 10.0 mi South 4.6 mph - N/A   Clear